Location: Columbia
(38.9520°N, 92.3340°W)
Time: 06:07:16
(UTC-05:00)

Daily predictions for brighter satellites

Satellite Brightness Start Highest point End
(mag) Time Altitude Azimuth Time Altitude Azimuth Time Altitude Azimuth
H-2A R/B 4.0 20:42:53 10° SW 20:46:22 31° SSE 20:58:55 10° ESE
Cosmos 2074 Rocket 4.1 20:45:12 10° S 20:51:28 86° W 20:57:46 10° N
Okean 2 Rocket 4.5 20:49:10 10° SE 20:52:24 20° E 20:55:38 10° NE
BREEZE-M DEB (TANK) 4.0 20:51:47 10° W 20:53:40 19° NNW 20:55:18 10° NNE
Cosmos 2084 3.3 20:50:40 10° SW 20:54:32 78° WNW 20:58:22 10° NNE
Cosmos 1606 3.3 20:50:52 10° N 20:54:36 39° E 20:58:17 10° SSE
Meteor 1-10 Rocket 4.3 20:49:19 10° N 20:55:08 86° E 21:00:48 10° S
Cosmos 1892 4.0 20:54:41 10° SSW 20:58:21 44° W 21:02:05 10° N
TIMED 4.5 20:55:22 10° SSW 20:59:43 85° ESE 21:04:07 10° NNE
CZ-4 DEB 2.9 20:56:44 10° SSE 20:59:50 54° ENE 21:02:56 10° N
Cosmos 1610 Rocket 4.5 20:55:55 10° S 21:02:04 79° E 21:08:19 10° N
Cosmos 1242 Rocket 4.3 20:59:38 10° NNE 21:02:17 18° ENE 21:04:46 11° ESE
Resurs 01 Rocket 4.2 21:00:58 10° SW 21:04:16 21° W 21:07:36 10° NW
USA 186 2.4 21:01:21 10° S 21:04:29 60° W 21:07:48 10° NNW
Cosmos 1174 3.1 21:01:37 10° NNW 21:04:46 85° WSW 21:07:43 10° SSE
ALOS 3.0 21:00:59 10° S 21:05:34 57° W 21:10:10 10° NNW
Cosmos 676 Rocket 4.0 21:01:34 10° NNW 21:06:48 77° ENE 21:12:02 10° SSE
Cosmos 1862 3.5 21:02:55 10° S 21:06:51 52° E 21:10:50 10° NNE
Sich 1 Rocket 3.6 21:02:40 10° S 21:07:15 83° E 21:11:50 10° N
COS B Rocket 3.9 21:04:09 10° NNE 21:07:37 32° E 21:10:43 10° SSE
Coronas F rocket 4.4 21:07:16 10° SW 21:09:13 18° WNW 21:11:10 10° NNW
Cosmos 1954 Rocket 4.1 21:04:04 10° NNW 21:09:15 62° ENE 21:14:26 10° SSE
GPS 2-05 Rocket1 3.3 21:07:01 10° WSW 21:10:39 50° S 21:13:49 13° ESE
OAO 3 Rocket 3.8 21:06:17 10° SW 21:10:53 39° SSE 21:15:29 10° E
Nadezhda 3 Rocket 4.2 21:04:37 10° N 21:10:55 60° E 21:17:11 10° SSE
Lacrosse 5 rocket 2.9 21:09:46 10° SSE 21:11:43 13° ESE 21:13:36 10° E
DNEPR-1 R/B 4.4 21:07:25 10° NNW 21:12:33 44° NE 21:16:17 13° ESE
Cosmos 1975 Rocket 3.8 21:08:43 10° NNE 21:12:40 33° ENE 21:16:09 12° SE
BREEZE-M DEB (TANK) 4.4 21:11:09 10° WNW 21:13:25 29° NNW 21:17:39 10° NE
ATLAS 5 CENTAUR R/B 4.0 21:09:05 10° NW 21:14:26 31° WSW 21:20:01 10° S
Cosmos 1408 2.7 21:10:55 10° S 21:14:28 52° E 21:18:01 10° NNE
SJ-11-01 4.3 21:10:12 10° SSE 21:14:55 69° ENE 21:19:39 10° N
H-2A R/B 3.9 21:12:57 10° S 21:16:28 41° W 21:20:01 10° NNW
Meteor 1-27 Rocket 3.6 21:14:29 10° N 21:20:03 82° E 21:25:33 10° S
Cosmos 1378 Rocket 3.5 21:16:24 10° N 21:20:42 67° E 21:25:00 10° SSE
Cosmos 1908 Rocket 3.6 21:17:01 10° S 21:21:25 87° W 21:25:53 10° N
Cosmos 1782 4.3 21:27:19 10° NNW 21:31:05 38° W 21:34:50 10° SSW
Cosmos 1825 2.4 21:34:19 10° SSW 21:38:06 71° W 21:41:56 10° N
Envisat 2.9 21:35:07 13° SSE 21:39:43 80° ENE 21:44:49 10° N
SEDSat Delta rocket 4.0 21:36:14 10° SW 21:40:02 27° S 21:41:22 23° SE
Cosmos 614 Rocket 4.2 21:35:06 10° N 21:40:03 50° ENE 21:43:07 22° SE
Cosmos 2341 Rocket 4.0 21:35:06 10° S 21:41:24 89° ESE 21:47:42 10° N
Cosmos 1833 Rocket 3.5 21:36:51 10° N 21:41:59 35° ENE 21:45:06 20° ESE
deb Chang Zheng 4 3.6 21:37:49 10° NNE 21:42:16 85° ESE 21:46:43 10° SSW
SL-8 Rocket 4.1 21:38:23 10° SSE 21:44:28 55° E 21:50:31 10° NNE
Terra 3.9 21:44:32 11° E 21:46:02 12° ENE 21:47:56 10° NE
USA 245 4.3 21:46:35 24° E 21:47:47 29° ENE 21:51:30 10° N
ISS -0.5 21:45:30 10° WNW 21:47:58 20° NNW 21:50:26 10° NNE
ERS-1 Rocket 3.5 21:43:43 10° S 21:48:39 57° W 21:53:37 10° NNW
Cosmos 2278 Rocket 3.0 21:43:18 10° SW 21:48:49 53° WNW 21:54:24 10° NNE
H-2A R/B 2.0 21:46:49 17° S 21:50:03 84° WSW 21:54:17 10° NNW
Cosmos 1420 Rocket 4.3 21:47:48 10° SSW 21:53:02 71° WNW 21:58:15 10° NNE
Cosmos 1939 Rocket 3.4 21:50:56 14° S 21:54:10 55° W 21:58:03 10° NNW
Okean 3 3.9 21:51:06 10° NNW 21:55:19 62° W 21:58:46 15° S
Abrixas 2.4 21:52:47 10° WSW 21:55:49 83° NNW 21:58:22 14° NE
Cosmos 1140 Rocket 3.6 21:51:56 10° NNW 21:57:04 72° WSW 22:00:43 19° S
COSMOS 2487 3.9 21:54:10 10° NW 21:57:29 35° WSW 22:00:04 15° SSW
APEX 4.1 21:54:40 10° SW 21:58:33 61° WNW 22:03:41 10° NNE
Cosmos 2151 Rocket 3.9 21:56:55 28° SSE 21:58:57 48° E 22:03:19 10° NNE
Cosmos 1295 Rocket 4.5 21:53:44 10° S 22:00:03 89° E 22:06:21 10° N
Timation 2 Rocket 3.9 21:54:10 10° NNW 22:00:10 82° WSW 22:04:05 23° SSE
Cosmos 1238 Rocket 3.8 21:59:05 10° NNW 22:02:27 42° W 22:06:08 12° SSW
SPOT 5 3.1 22:02:47 21° S 22:06:24 83° WSW 22:11:48 10° NNW
CZ-4B R/B 3.5 22:01:39 10° NNE 22:06:24 49° E 22:08:19 31° SSE
Cosmos 2082 Rocket 2.2 22:04:25 10° NNW 22:10:08 75° ENE 22:12:49 32° SSE
NOSS 8 (F) 4.5 22:09:02 10° SW 22:12:32 82° WNW 22:16:11 10° NNE
Okean 1 Rocket 4.4 22:13:53 24° E 22:13:53 24° E 22:17:02 10° NE
Cosmos 864 Rocket 4.4 22:09:39 23° SSE 22:13:29 63° E 22:19:35 10° NNE
Cosmos 1812 3.7 22:11:49 10° NNE 22:15:11 30° ENE 22:15:11 30° ENE
Lacrosse 5 2.1 22:12:48 10° SSW 22:17:39 46° SE 22:22:30 10° NE
H-2A R/B 2.9 22:20:50 31° E 22:22:10 35° ENE 22:26:56 10° N
UNK 4.4 22:18:53 10° NNE 22:25:02 84° WNW 22:30:20 13° SSW
Meteor 1-18 Rocket 4.3 22:20:22 10° N 22:26:18 71° E 22:28:36 38° SSE
Cosmos 2366 rocket 3.9 22:22:11 21° S 22:26:39 86° E 22:33:01 10° N
MetOp-B 4.4 22:25:01 27° S 22:27:58 64° WSW 22:33:17 10° NNW
NOAA 11 4.1 22:28:27 40° SSE 22:30:33 81° ENE 22:36:05 10° N
SPOT 1/Viking Rocket 3.6 22:35:56 40° S 22:37:51 75° WSW 22:43:05 10° NNW
ASTEX 1 4.2 22:40:15 10° NNE 22:44:26 36° ENE 22:44:26 36° ENE
YAOGAN 6 3.9 22:45:16 29° WSW 22:45:47 31° W 22:48:57 10° NNW
CARTOSAT-1 3.9 22:49:49 50° ENE 22:49:49 50° ENE 22:53:46 10° N
Lacrosse 5 rocket 1.6 22:46:39 10° SW 22:50:34 60° NW 22:54:17 10° NE
USA 229 DEB 3.9 22:44:48 10° NW 22:51:51 67° WSW 22:54:27 41° S
USA 229 3.9 22:44:54 10° NW 22:51:58 67° WSW 22:54:33 41° S
ARGOS 3.4 22:50:37 42° SSW 22:52:18 64° WSW 22:57:38 10° NNW
Meteor 2-19 Rocket 4.4 22:49:34 33° SSW 22:52:30 80° W 22:58:38 10° N
OAO 3 Rocket 3.6 22:49:18 10° WSW 22:53:19 48° SW 22:53:19 48° SW
SL-08 RB Rocket 3.9 22:53:47 57° SSW 22:54:28 66° W 22:59:06 10° NNW
Cosmos 2369 Rocket 3.2 22:55:52 31° ENE 22:55:52 31° ENE 22:59:35 10° NE
Meteor 1-11 Rocket 4.0 22:56:17 49° E 22:56:29 49° E 23:02:01 10° NNE
CZ-4 R/B 4.1 22:53:24 10° N 22:58:01 64° WNW 22:59:17 44° SW
Cosmos 1536 Rocket 4.5 22:59:14 10° NNW 23:03:28 42° W 23:04:13 39° WSW
Landsat 7 3.8 23:07:13 70° SW 23:07:27 72° WSW 23:12:13 10° NNW
IGS 5A 3.9 23:09:05 57° NNE 23:09:05 57° NNE 23:12:30 10° N
NOSS 3-1 (A) 4.3 23:02:45 10° NNW 23:10:13 57° NE 23:12:56 40° ESE
Gbstr 26 Del rocket 3.3 23:05:26 10° NW 23:10:03 66° N 23:10:03 66° N
CZ-4C R/B 3.9 23:11:59 56° WNW 23:11:59 56° WNW 23:15:33 10° NNW
DELTA 2 DEB (DPAF) 4.4 23:12:14 64° W 23:12:14 64° W 23:16:33 10° NNW
Cosmos 1400 Rocket 4.2 23:19:55 34° NNE 23:19:55 34° NNE 23:22:24 10° NNE
Cosmos 1943 Rocket 4.1 23:21:41 16° ENE 23:21:41 16° ENE 23:23:16 10° NE
Terra 2.0 23:23:26 69° WNW 23:23:26 69° WNW 23:27:55 10° NNW
Meteor 1-19 Rocket 4.2 23:19:11 10° N 23:25:01 72° E 23:25:07 72° E
Cosmos 1833 Rocket 3.9 23:20:55 10° NW 23:25:47 31° WSW 23:26:48 29° WSW
Cosmos 1025 Rocket 3.9 23:25:44 10° N 23:28:54 45° NNE 23:28:54 45° NNE
ATLAS 2AS CENTAUR R/B 4.1 23:23:38 10° NNW 23:30:55 34° NE 23:34:22 25° E
Meteor 2-16 Rocket 4.5 23:32:56 63° E 23:32:56 63° E 23:38:45 10° NNE
Meteor 2-21 Rocket 4.3 23:33:03 78° SE 23:33:17 79° E 23:39:31 10° N
DMSP B5D2-2 4.4 23:28:25 10° N 23:33:34 61° WNW 23:34:07 57° WSW
NOSS 3-1 (C) 4.0 23:31:05 10° NW 23:38:47 85° WSW 23:40:23 62° SSE
Cosmos 1821 Rocket 3.9 23:42:00 73° SW 23:42:33 80° W 23:48:48 10° N
Cosmos 1605 Rocket 4.1 23:43:43 60° E 23:43:43 60° E 23:49:45 10° NNE
USA 234 3.1 23:38:08 10° NE 23:44:42 80° SE 23:45:22 72° SSW
Spot 4 4.5 23:45:42 52° WNW 23:45:42 52° WNW 23:49:49 10° NNW
Cosmos 1934 Rocket 3.8 23:49:38 84° W 23:49:40 84° W 23:55:45 10° N
Cosmos 1354 Rocket 4.3 23:46:21 10° NNW 23:50:52 65° NW 23:50:52 65° NW
Cosmos 2082 Rocket 4.4 23:50:51 10° WNW 23:53:27 13° W 23:54:41 13° WSW
